World > North America > United States > Texas

Gunter, Texas Regional Weather

Lat: 33.45N, Lon: 96.74W
Wx Zone: TXZ093Web Search
Gunter Weather Warning NWS WEATHER ALERT FOR THE GUNTER, TX AREA - Issued: 806 PM CDT Wed Apr 14 2021 Gunter Weather Warning  

Helpful Tip: Abbreviated, 7 Day, 14 Day Forecasts. There is a weather forecast for every taste.

Feedback


°F Click to change Gunter hourly weather to Imperial units.Click to change Gunter hourly weather to Metric units. °C
Gunter Weather Map
UTC Time: 4/15/2021, 05:22
Your Time:

Gunter, TX Regional Weather

Expires:202104150600;;573948
ASUS44 KFWD 150515
RWRTX 
NORTH TEXAS HOURLY WEATHER ROUNDUP
NATIONAL WEATHER SERVICE FORT WORTH TX
1200 AM CDT THU APR 15 2021

NOTE: "FAIR" INDICATES FEW OR NO CLOUDS BELOW 12,000 FEET WITH NO
SIGNIFICANT WEATHER AND/OR OBSTRUCTIONS TO VISIBILITY.


TXZ091>094-102>105-117-120-121-131>134-150600-
NORTH CENTRAL TEXAS
  
CITY           SKY/WX    TMP DP  RH WIND       PRES   REMARKS
SHRMAN/DENISON TSTM      57  55  95 N9        30.11R                  
GAINESVILLE    CLOUDY    55  54  99 N5        30.11S                  
BOWIE          LGT RAIN  54  53  97 NE7       30.08F                  
BRIDGEPORT     CLOUDY    57  55  94 N7        30.10R                  
DECATUR        CLOUDY    56  54  94 NE7       30.07S                  
DENTON         LGT RAIN  58  55  90 NE9       30.07S                  
MCKINNEY       CLOUDY    59  56  89 E8        30.06S                  
BONHAM         TSTM      57  56  97 NE7       30.09F                  
GREENVILLE     CLOUDY    58  56  92 N7        30.09R                  
ROCKWALL       CLOUDY    59  59 100 NE9       30.06R                  
TERRELL        CLOUDY    59  57  93 NE9       30.06R                  
WAXAHACHIE     CLOUDY    61  57  85 NE5       30.05S                  
CLEBURNE       CLOUDY    64  57  77 NE8       30.05R                  
GRANBURY       CLOUDY    62  56  79 N9        30.06S                  
$$


SKY/WX - Weather  TMP - Temperature  DP - Dew Point  RH - Relative Humidity
WIND - Wind Direction/Speed PRES - Barometric Pressure VSB - Visibility
WCI - Wind Chill Index E13G22 Wind - East Wind 13 mph/Gusts of 22 mph